Time,TemperatureF,DewpointF,PressureIn,WindDirection,WindDirectionDegrees,WindSpeedMPH,WindSpeedGustMPH,Humidity,HourlyPrecipIn,Conditions,Clouds,dailyrainin,SoftwareType,DateUTC
2013-01-24 00:05:00,20.5,17.2,30.25,WNW,294,6.0,7.0,87,0.00,,,0.00,Wunderground v.1.15,2013-01-24 05:05:00,
2013-01-24 00:10:00,20.4,17.1,30.25,NNW,327,7.0,10.0,87,0.00,,,0.00,Wunderground v.1.15,2013-01-24 05:10:00,
2013-01-24 00:15:00,20.3,17.3,30.25,NNW,333,8.0,10.0,88,0.00,,,0.00,Wunderground v.1.15,2013-01-24 05:15:00,
2013-01-24 00:20:00,20.1,17.1,30.26,NNW,328,9.0,9.0,88,0.00,,,0.00,Wunderground v.1.15,2013-01-24 05:20:00,
2013-01-24 00:25:00,19.9,17.2,30.26,NW,324,9.0,9.0,89,0.00,,,0.00,Wunderground v.1.15,2013-01-24 05:25:00,
2013-01-24 00:30:00,19.8,17.1,30.26,NW,312,7.0,9.0,89,0.00,,,0.00,Wunderground v.1.15,2013-01-24 05:30:00,
2013-01-24 00:35:00,19.7,17.0,30.26,NW,320,7.0,9.0,89,0.00,,,0.00,Wunderground v.1.15,2013-01-24 05:35:00,
2013-01-24 00:40:00,19.6,16.9,30.27,NW,324,7.0,8.0,89,0.00,,,0.00,Wunderground v.1.15,2013-01-24 05:40:00,
2013-01-24 00:50:00,19.1,16.4,30.28,North,5,9.0,9.0,89,0.00,,,0.00,Wunderground v.1.15,2013-01-24 05:50:00,
2013-01-24 00:55:00,19.0,15.8,30.28,NNW,347,9.0,9.0,87,0.00,,,0.00,Wunderground v.1.15,2013-01-24 05:55:00,
2013-01-24 01:00:00,18.9,15.4,30.29,NNW,329,9.0,14.0,86,0.00,,,0.00,Wunderground v.1.15,2013-01-24 06:00:00,
2013-01-24 01:05:00,18.6,14.3,30.29,NNW,333,10.0,14.0,83,0.00,,,0.00,Wunderground v.1.15,2013-01-24 06:05:00,
2013-01-24 01:10:00,18.3,12.6,30.30,NNW,334,10.0,10.0,78,0.00,,,0.00,Wunderground v.1.15,2013-01-24 06:10:00,
2013-01-24 01:20:00,17.5,10.6,30.31,NW,321,8.0,8.0,74,0.00,,,0.00,Wunderground v.1.15,2013-01-24 06:20:00,
2013-01-24 01:25:00,17.2,10.6,30.31,North,5,8.0,8.0,75,0.00,,,0.00,Wunderground v.1.15,2013-01-24 06:25:00,
2013-01-24 01:30:00,16.9,10.9,30.31,NW,317,8.0,8.0,77,0.00,,,0.00,Wunderground v.1.15,2013-01-24 06:30:00,
2013-01-24 01:35:00,16.7,11.0,30.31,WNW,294,8.0,12.0,78,0.00,,,0.00,Wunderground v.1.15,2013-01-24 06:35:00,
2013-01-24 01:40:00,16.5,10.8,30.32,NW,314,8.0,8.0,78,0.00,,,0.00,Wunderground v.1.15,2013-01-24 06:40:00,
2013-01-24 01:45:00,16.4,10.7,30.33,NNW,334,9.0,9.0,78,0.00,,,0.00,Wunderground v.1.15,2013-01-24 06:45:00,
2013-01-24 01:55:00,16.2,10.3,30.33,WNW,302,8.0,8.0,77,0.00,,,0.00,Wunderground v.1.15,2013-01-24 06:55:00,
2013-01-24 02:00:00,16.2,10.0,30.34,NW,307,8.0,8.0,76,0.00,,,0.00,Wunderground v.1.15,2013-01-24 07:00:00,
2013-01-24 02:05:00,16.1,9.9,30.34,NW,307,8.0,9.0,76,0.00,,,0.00,Wunderground v.1.15,2013-01-24 07:05:00,
2013-01-24 02:10:00,15.9,9.7,30.35,NW,315,7.0,7.0,76,0.00,,,0.00,Wunderground v.1.15,2013-01-24 07:10:00,
2013-01-24 02:15:00,15.8,9.6,30.35,NW,310,7.0,7.0,76,0.00,,,0.00,Wunderground v.1.15,2013-01-24 07:15:00,
2013-01-24 02:20:00,15.6,9.7,30.36,WNW,298,6.0,6.0,77,0.00,,,0.00,Wunderground v.1.15,2013-01-24 07:20:00,
2013-01-24 02:25:00,15.4,9.5,30.36,NW,325,6.0,7.0,77,0.00,,,0.00,Wunderground v.1.15,2013-01-24 07:25:00,
2013-01-24 02:30:00,15.3,9.1,30.36,WNW,302,7.0,7.0,76,0.00,,,0.00,Wunderground v.1.15,2013-01-24 07:30:00,
2013-01-24 02:35:00,15.2,9.3,30.37,NW,317,7.0,7.0,77,0.00,,,0.00,Wunderground v.1.15,2013-01-24 07:35:00,
2013-01-24 02:40:00,15.1,8.9,30.37,NW,320,8.0,8.0,76,0.00,,,0.00,Wunderground v.1.15,2013-01-24 07:40:00,
2013-01-24 02:45:00,15.0,8.8,30.37,WNW,297,7.0,8.0,76,0.00,,,0.00,Wunderground v.1.15,2013-01-24 07:45:00,
2013-01-24 02:50:00,14.8,8.6,30.38,NW,317,6.0,6.0,76,0.00,,,0.00,Wunderground v.1.15,2013-01-24 07:50:00,
2013-01-24 03:00:00,14.5,8.3,30.39,NNW,327,6.0,9.0,76,0.00,,,0.00,Wunderground v.1.15,2013-01-24 08:00:00,
2013-01-24 03:05:00,14.4,8.2,30.39,WNW,289,7.0,9.0,76,0.00,,,0.00,Wunderground v.1.15,2013-01-24 08:05:00,
2013-01-24 03:10:00,14.2,7.7,30.39,WNW,286,7.0,8.0,75,0.00,,,0.00,Wunderground v.1.15,2013-01-24 08:10:00,
2013-01-24 03:15:00,14.0,7.5,30.40,NW,313,8.0,8.0,75,0.00,,,0.00,Wunderground v.1.15,2013-01-24 08:15:00,
2013-01-24 03:20:00,13.7,7.5,30.40,NW,322,6.0,6.0,76,0.00,,,0.00,Wunderground v.1.15,2013-01-24 08:20:00,
2013-01-24 03:30:00,13.4,7.5,30.41,NW,326,7.0,7.0,77,0.00,,,0.00,Wunderground v.1.15,2013-01-24 08:30:00,
2013-01-24 03:35:00,13.2,7.3,30.41,NW,313,7.0,9.0,77,0.00,,,0.00,Wunderground v.1.15,2013-01-24 08:35:00,
2013-01-24 03:40:00,13.1,7.2,30.41,NW,320,7.0,7.0,77,0.00,,,0.00,Wunderground v.1.15,2013-01-24 08:40:00,
2013-01-24 03:45:00,12.9,7.0,30.42,NNW,335,7.0,8.0,77,0.00,,,0.00,Wunderground v.1.15,2013-01-24 08:45:00,
2013-01-24 03:50:00,12.8,6.9,30.42,NW,306,7.0,7.0,77,0.00,,,0.00,Wunderground v.1.15,2013-01-24 08:50:00,
2013-01-24 03:55:00,12.7,6.9,30.43,WNW,301,7.0,7.0,77,0.00,,,0.00,Wunderground v.1.15,2013-01-24 08:55:00,
2013-01-24 04:05:00,12.4,6.6,30.43,NNW,338,6.0,8.0,77,0.00,,,0.00,Wunderground v.1.15,2013-01-24 09:05:00,
2013-01-24 04:10:00,12.3,6.5,30.43,NW,315,6.0,13.0,77,0.00,,,0.00,Wunderground v.1.15,2013-01-24 09:10:00,
2013-01-24 04:15:00,12.2,6.4,30.43,NNW,337,6.0,13.0,77,0.00,,,0.00,Wunderground v.1.15,2013-01-24 09:15:00,
2013-01-24 04:20:00,12.0,6.2,30.43,WNW,296,6.0,6.0,77,0.00,,,0.00,Wunderground v.1.15,2013-01-24 09:20:00,
2013-01-24 04:30:00,11.8,6.0,30.43,WNW,295,6.0,6.0,77,0.00,,,0.00,Wunderground v.1.15,2013-01-24 09:30:00,
2013-01-24 04:40:00,11.5,5.7,30.43,NW,312,6.0,6.0,77,0.00,,,0.00,Wunderground v.1.15,2013-01-24 09:40:00,
2013-01-24 04:45:00,11.4,5.6,30.44,NW,322,5.0,6.0,77,0.00,,,0.00,Wunderground v.1.15,2013-01-24 09:45:00,
2013-01-24 04:50:00,11.4,5.6,30.44,NW,323,6.0,6.0,77,0.00,,,0.00,Wunderground v.1.15,2013-01-24 09:50:00,
2013-01-24 04:55:00,11.3,5.5,30.45,WNW,300,6.0,6.0,77,0.00,,,0.00,Wunderground v.1.15,2013-01-24 09:55:00,
2013-01-24 05:00:00,11.3,5.5,30.44,NNW,331,6.0,6.0,77,0.00,,,0.00,Wunderground v.1.15,2013-01-24 10:00:00,
2013-01-24 05:10:00,11.3,5.2,30.45,North,360,7.0,8.0,76,0.00,,,0.00,Wunderground v.1.15,2013-01-24 10:10:00,
2013-01-24 05:15:00,11.2,5.1,30.45,NNW,335,6.0,8.0,76,0.00,,,0.00,Wunderground v.1.15,2013-01-24 10:15:00,
2013-01-24 05:20:00,11.1,5.0,30.45,NNW,331,6.0,6.0,76,0.00,,,0.00,Wunderground v.1.15,2013-01-24 10:20:00,
2013-01-24 05:25:00,11.1,4.7,30.45,NW,325,5.0,6.0,75,0.00,,,0.00,Wunderground v.1.15,2013-01-24 10:25:00,
2013-01-24 05:30:00,11.0,4.6,30.45,NW,316,5.0,7.0,75,0.00,,,0.00,Wunderground v.1.15,2013-01-24 10:30:00,
2013-01-24 05:35:00,10.9,4.5,30.46,North,5,6.0,7.0,75,0.00,,,0.00,Wunderground v.1.15,2013-01-24 10:35:00,
2013-01-24 05:45:00,10.8,4.4,30.48,NNW,346,7.0,7.0,75,0.00,,,0.00,Wunderground v.1.15,2013-01-24 10:45:00,
2013-01-24 05:50:00,10.7,4.0,30.48,NW,321,7.0,7.0,74,0.00,,,0.00,Wunderground v.1.15,2013-01-24 10:50:00,
2013-01-24 05:55:00,10.6,3.9,30.48,NW,317,6.0,7.0,74,0.00,,,0.00,Wunderground v.1.15,2013-01-24 10:55:00,
2013-01-24 06:00:00,10.5,4.1,30.48,NNW,330,6.0,6.0,75,0.00,,,0.00,Wunderground v.1.15,2013-01-24 11:00:00,
2013-01-24 06:10:00,10.4,4.0,30.49,NW,309,5.0,5.0,75,0.00,,,0.00,Wunderground v.1.15,2013-01-24 11:10:00,
2013-01-24 06:15:00,10.3,3.9,30.50,NW,306,5.0,5.0,75,0.00,,,0.00,Wunderground v.1.15,2013-01-24 11:15:00,
2013-01-24 06:20:00,10.2,3.8,30.50,NW,323,5.0,5.0,75,0.00,,,0.00,Wunderground v.1.15,2013-01-24 11:20:00,
2013-01-24 06:25:00,10.1,3.8,30.50,NW,317,5.0,5.0,75,0.00,,,0.00,Wunderground v.1.15,2013-01-24 11:25:00,
2013-01-24 06:30:00,10.0,3.7,30.50,NW,305,5.0,5.0,75,0.00,,,0.00,Wunderground v.1.15,2013-01-24 11:30:00,
2013-01-24 06:35:00,9.9,3.8,30.51,NW,323,4.0,5.0,76,0.00,,,0.00,Wunderground v.1.15,2013-01-24 11:35:00,
2013-01-24 06:40:00,9.9,3.8,30.52,NW,321,4.0,4.0,76,0.00,,,0.00,Wunderground v.1.15,2013-01-24 11:40:00,
2013-01-24 06:45:00,9.8,3.7,30.52,NW,313,3.0,4.0,76,0.00,,,0.00,Wunderground v.1.15,2013-01-24 11:45:00,
2013-01-24 06:50:00,9.7,3.7,30.52,NW,315,3.0,3.0,76,0.00,,,0.00,Wunderground v.1.15,2013-01-24 11:50:00,
2013-01-24 06:55:00,9.8,3.7,30.52,NW,320,3.0,3.0,76,0.00,,,0.00,Wunderground v.1.15,2013-01-24 11:55:00,
2013-01-24 07:00:00,9.7,3.7,30.53,NW,319,3.0,3.0,76,0.00,,,0.00,Wunderground v.1.15,2013-01-24 12:00:00,
2013-01-24 07:05:00,9.6,3.6,30.53,NW,314,2.0,13.0,76,0.00,,,0.00,Wunderground v.1.15,2013-01-24 12:05:00,
2013-01-24 07:10:00,9.5,3.5,30.54,NW,314,2.0,2.0,76,0.00,,,0.00,Wunderground v.1.15,2013-01-24 12:10:00,
2013-01-24 07:20:00,9.4,3.6,30.54,NW,317,2.0,13.0,77,0.00,,,0.00,Wunderground v.1.15,2013-01-24 12:20:00,
2013-01-24 07:25:00,9.4,3.4,30.54,WNW,300,3.0,13.0,76,0.00,,,0.00,Wunderground v.1.15,2013-01-24 12:25:00,
2013-01-24 07:30:00,9.3,3.5,30.53,WNW,300,3.0,13.0,77,0.00,,,0.00,Wunderground v.1.15,2013-01-24 12:30:00,
2013-01-24 07:35:00,9.2,3.4,30.54,NW,305,2.0,13.0,77,0.00,,,0.00,Wunderground v.1.15,2013-01-24 12:35:00,
2013-01-24 07:40:00,9.1,3.4,30.55,NW,306,2.0,2.0,77,0.00,,,0.00,Wunderground v.1.15,2013-01-24 12:40:00,
2013-01-24 07:45:00,9.0,3.3,30.56,NW,306,1.0,13.0,77,0.00,,,0.00,Wunderground v.1.15,2013-01-24 12:45:00,
2013-01-24 07:55:00,8.7,3.2,30.56,WNW,287,0.0,13.0,78,0.00,,,0.00,Wunderground v.1.15,2013-01-24 12:55:00,
2013-01-24 08:00:00,8.3,3.1,30.55,WNW,287,1.0,1.0,79,0.00,,,0.00,Wunderground v.1.15,2013-01-24 13:00:00,
2013-01-24 08:05:00,8.1,2.9,30.55,WNW,287,1.0,13.0,79,0.00,,,0.00,Wunderground v.1.15,2013-01-24 13:05:00,
2013-01-24 08:10:00,7.7,2.5,30.55,WNW,287,0.0,13.0,79,0.00,,,0.00,Wunderground v.1.15,2013-01-24 13:10:00,
2013-01-24 08:15:00,7.3,2.4,30.55,WNW,287,0.0,13.0,80,0.00,,,0.00,Wunderground v.1.15,2013-01-24 13:15:00,
2013-01-24 08:25:00,6.9,2.6,30.56,WNW,282,1.0,13.0,82,0.00,,,0.00,Wunderground v.1.15,2013-01-24 13:25:00,
2013-01-24 08:30:00,6.8,2.5,30.56,WNW,282,1.0,1.0,82,0.00,,,0.00,Wunderground v.1.15,2013-01-24 13:30:00,
2013-01-24 08:35:00,6.7,2.6,30.57,WNW,282,0.0,2.0,83,0.00,,,0.00,Wunderground v.1.15,2013-01-24 13:35:00,
2013-01-24 08:40:00,6.7,2.6,30.57,WNW,283,1.0,13.0,83,0.00,,,0.00,Wunderground v.1.15,2013-01-24 13:40:00,
2013-01-24 08:45:00,7.1,3.0,30.56,WNW,297,2.0,13.0,83,0.00,,,0.00,Wunderground v.1.15,2013-01-24 13:45:00,
2013-01-24 08:50:00,7.6,3.3,30.57,NW,304,2.0,13.0,82,0.00,,,0.00,Wunderground v.1.15,2013-01-24 13:50:00,
2013-01-24 09:00:00,8.5,3.6,30.58,NW,324,2.0,2.0,80,0.00,,,0.00,Wunderground v.1.15,2013-01-24 14:00:00,
2013-01-24 09:05:00,8.9,3.4,30.57,NNW,336,3.0,3.0,78,0.00,,,0.00,Wunderground v.1.15,2013-01-24 14:05:00,
2013-01-24 09:10:00,9.2,3.4,30.58,WNW,298,4.0,13.0,77,0.00,,,0.00,Wunderground v.1.15,2013-01-24 14:10:00,
2013-01-24 09:15:00,9.5,3.7,30.58,NW,326,4.0,13.0,77,0.00,,,0.00,Wunderground v.1.15,2013-01-24 14:15:00,
2013-01-24 09:20:00,9.8,4.3,30.58,NNW,340,4.0,13.0,78,0.00,,,0.00,Wunderground v.1.15,2013-01-24 14:20:00,
2013-01-24 09:30:00,10.4,4.6,30.59,NW,307,4.0,13.0,77,0.00,,,0.00,Wunderground v.1.15,2013-01-24 14:30:00,
2013-01-24 09:35:00,10.9,5.1,30.60,NW,319,4.0,13.0,77,0.00,,,0.00,Wunderground v.1.15,2013-01-24 14:35:00,
2013-01-24 09:40:00,11.3,5.5,30.60,WNW,302,4.0,13.0,77,0.00,,,0.00,Wunderground v.1.15,2013-01-24 14:40:00,
2013-01-24 09:45:00,11.7,5.9,30.60,WNW,299,5.0,13.0,77,0.00,,,0.00,Wunderground v.1.15,2013-01-24 14:45:00,
2013-01-24 09:50:00,12.3,6.7,30.61,NW,317,4.0,4.0,78,0.00,,,0.00,Wunderground v.1.15,2013-01-24 14:50:00,
2013-01-24 09:55:00,12.7,6.9,30.61,NW,308,3.0,13.0,77,0.00,,,0.00,Wunderground v.1.15,2013-01-24 14:55:00,
2013-01-24 10:05:00,13.2,7.3,30.62,NNW,336,3.0,13.0,77,0.00,,,0.00,Wunderground v.1.15,2013-01-24 15:05:00,
2013-01-24 10:10:00,13.6,7.7,30.62,NW,309,3.0,13.0,77,0.00,,,0.00,Wunderground v.1.15,2013-01-24 15:10:00,
2013-01-24 10:15:00,13.9,8.0,30.62,WNW,301,3.0,13.0,77,0.00,,,0.00,Wunderground v.1.15,2013-01-24 15:15:00,
2013-01-24 10:20:00,13.9,7.7,30.62,NNW,342,4.0,4.0,76,0.00,,,0.00,Wunderground v.1.15,2013-01-24 15:20:00,
2013-01-24 10:25:00,14.1,7.9,30.62,NW,322,4.0,13.0,76,0.00,,,0.00,Wunderground v.1.15,2013-01-24 15:25:00,
2013-01-24 10:35:00,14.5,8.3,30.62,NNW,341,4.0,13.0,76,0.00,,,0.00,Wunderground v.1.15,2013-01-24 15:35:00,
2013-01-24 10:40:00,14.7,8.5,30.63,NW,313,4.0,13.0,76,0.00,,,0.00,Wunderground v.1.15,2013-01-24 15:40:00,
2013-01-24 10:45:00,15.0,8.8,30.63,NNW,334,3.0,13.0,76,0.00,,,0.00,Wunderground v.1.15,2013-01-24 15:45:00,
2013-01-24 10:50:00,15.3,9.4,30.63,NNW,345,3.0,13.0,77,0.00,,,0.00,Wunderground v.1.15,2013-01-24 15:50:00,
2013-01-24 10:55:00,15.7,9.5,30.63,NE,47,3.0,13.0,76,0.00,,,0.00,Wunderground v.1.15,2013-01-24 15:55:00,
2013-01-24 11:00:00,16.1,9.6,30.63,NW,314,3.0,13.0,75,0.00,,,0.00,Wunderground v.1.15,2013-01-24 16:00:00,
2013-01-24 11:05:00,16.6,10.6,30.63,NW,319,2.0,13.0,77,0.00,,,0.00,Wunderground v.1.15,2013-01-24 16:05:00,
2013-01-24 11:10:00,17.1,10.8,30.63,North,355,2.0,13.0,76,0.00,,,0.00,Wunderground v.1.15,2013-01-24 16:10:00,
2013-01-24 11:15:00,17.5,10.9,30.64,North,360,2.0,13.0,75,0.00,,,0.00,Wunderground v.1.15,2013-01-24 16:15:00,
2013-01-24 11:25:00,18.2,11.6,30.64,NNE,14,2.0,13.0,75,0.00,,,0.00,Wunderground v.1.15,2013-01-24 16:25:00,
2013-01-24 11:30:00,18.2,11.3,30.63,ENE,68,3.0,13.0,74,0.00,,,0.00,Wunderground v.1.15,2013-01-24 16:30:00,
2013-01-24 11:40:00,18.1,11.5,30.63,NNE,14,3.0,13.0,75,0.00,,,0.00,Wunderground v.1.15,2013-01-24 16:40:00,
2013-01-24 11:45:00,18.4,11.8,30.63,NNW,329,3.0,13.0,75,0.00,,,0.00,Wunderground v.1.15,2013-01-24 16:45:00,
2013-01-24 11:50:00,18.9,12.3,30.63,North,360,2.0,2.0,75,0.00,,,0.00,Wunderground v.1.15,2013-01-24 16:50:00,
2013-01-24 11:55:00,19.1,12.5,30.63,NE,46,3.0,3.0,75,0.00,,,0.00,Wunderground v.1.15,2013-01-24 16:55:00,
2013-01-24 12:00:00,19.4,12.2,30.62,NE,36,3.0,3.0,73,0.00,,,0.00,Wunderground v.1.15,2013-01-24 17:00:00,
2013-01-24 12:05:00,19.9,12.6,30.63,ESE,119,2.0,13.0,73,0.00,,,0.00,Wunderground v.1.15,2013-01-24 17:05:00,
2013-01-24 12:15:00,20.5,12.6,30.62,NE,46,2.0,3.0,71,0.00,,,0.00,Wunderground v.1.15,2013-01-24 17:15:00,
2013-01-24 12:20:00,20.5,12.3,30.62,East,85,2.0,2.0,70,0.00,,,0.00,Wunderground v.1.15,2013-01-24 17:20:00,
2013-01-24 12:30:00,21.0,12.4,30.61,ENE,76,2.0,13.0,69,0.00,,,0.00,Wunderground v.1.15,2013-01-24 17:30:00,
2013-01-24 12:35:00,21.1,12.2,30.61,ESE,117,3.0,13.0,68,0.00,,,0.00,Wunderground v.1.15,2013-01-24 17:35:00,
2013-01-24 12:40:00,21.1,11.8,30.61,North,9,3.0,3.0,67,0.00,,,0.00,Wunderground v.1.15,2013-01-24 17:40:00,
2013-01-24 12:45:00,21.5,12.6,30.61,ENE,63,2.0,13.0,68,0.00,,,0.00,Wunderground v.1.15,2013-01-24 17:45:00,
2013-01-24 12:50:00,22.0,12.4,30.61,NE,34,2.0,13.0,66,0.00,,,0.00,Wunderground v.1.15,2013-01-24 17:50:00,
2013-01-24 12:55:00,21.9,12.3,30.61,ESE,112,2.0,13.0,66,0.00,,,0.00,Wunderground v.1.15,2013-01-24 17:55:00,
2013-01-24 13:00:00,22.2,12.9,30.61,ESE,112,1.0,1.0,67,0.00,,,0.00,Wunderground v.1.15,2013-01-24 18:00:00,
2013-01-24 13:05:00,22.8,12.8,30.60,SE,142,1.0,3.0,65,0.00,,,0.00,Wunderground v.1.15,2013-01-24 18:05:00,
2013-01-24 13:10:00,23.0,12.3,30.60,East,92,1.0,13.0,63,0.00,,,0.00,Wunderground v.1.15,2013-01-24 18:10:00,
2013-01-24 13:20:00,22.8,9.8,30.60,ESE,107,2.0,13.0,57,0.00,,,0.00,Wunderground v.1.15,2013-01-24 18:20:00,
2013-01-24 13:25:00,22.6,9.6,30.59,ENE,76,3.0,13.0,57,0.00,,,0.00,Wunderground v.1.15,2013-01-24 18:25:00,
2013-01-24 13:30:00,22.9,10.3,30.59,ESE,115,3.0,13.0,58,0.00,,,0.00,Wunderground v.1.15,2013-01-24 18:30:00,
2013-01-24 13:35:00,22.7,9.3,30.58,ESE,117,4.0,13.0,56,0.00,,,0.00,Wunderground v.1.15,2013-01-24 18:35:00,
2013-01-24 13:40:00,22.6,8.8,30.58,ESE,115,4.0,13.0,55,0.00,,,0.00,Wunderground v.1.15,2013-01-24 18:40:00,
2013-01-24 13:50:00,22.8,8.6,30.58,ESE,111,4.0,13.0,54,0.00,,,0.00,Wunderground v.1.15,2013-01-24 18:50:00,
2013-01-24 13:55:00,22.7,8.1,30.58,East,86,4.0,13.0,53,0.00,,,0.00,Wunderground v.1.15,2013-01-24 18:55:00,
2013-01-24 14:00:00,22.7,8.9,30.57,East,89,3.0,13.0,55,0.00,,,0.00,Wunderground v.1.15,2013-01-24 19:00:00,
2013-01-24 14:05:00,22.9,7.9,30.57,East,101,2.0,13.0,52,0.00,,,0.00,Wunderground v.1.15,2013-01-24 19:05:00,
2013-01-24 14:10:00,23.1,7.6,30.57,ESE,111,2.0,13.0,51,0.00,,,0.00,Wunderground v.1.15,2013-01-24 19:10:00,
2013-01-24 14:15:00,23.0,6.7,30.57,ENE,69,3.0,13.0,49,0.00,,,0.00,Wunderground v.1.15,2013-01-24 19:15:00,
2013-01-24 14:25:00,23.1,7.2,30.57,ESE,111,3.0,13.0,50,0.00,,,0.00,Wunderground v.1.15,2013-01-24 19:25:00,
2013-01-24 14:30:00,23.6,8.9,30.57,SE,134,1.0,13.0,53,0.00,,,0.00,Wunderground v.1.15,2013-01-24 19:30:00,
2013-01-24 14:35:00,23.6,7.7,30.56,ESE,121,2.0,13.0,50,0.00,,,0.00,Wunderground v.1.15,2013-01-24 19:35:00,
2013-01-24 14:40:00,23.6,7.7,30.56,East,86,3.0,3.0,50,0.00,,,0.00,Wunderground v.1.15,2013-01-24 19:40:00,
2013-01-24 14:45:00,23.8,7.4,30.57,East,86,3.0,6.0,49,0.00,,,0.00,Wunderground v.1.15,2013-01-24 19:45:00,
2013-01-24 14:55:00,24.1,7.2,30.57,East,94,2.0,13.0,48,0.00,,,0.00,Wunderground v.1.15,2013-01-24 19:55:00,
2013-01-24 15:00:00,24.1,6.3,30.57,ESE,103,2.0,2.0,46,0.00,,,0.00,Wunderground v.1.15,2013-01-24 20:00:00,
2013-01-24 15:05:00,23.9,5.6,30.57,ENE,65,2.0,3.0,45,0.00,,,0.00,Wunderground v.1.15,2013-01-24 20:05:00,
2013-01-24 15:10:00,23.9,6.1,30.56,East,93,2.0,2.0,46,0.00,,,0.00,Wunderground v.1.15,2013-01-24 20:10:00,
2013-01-24 15:15:00,24.3,7.4,30.55,ENE,78,1.0,13.0,48,0.00,,,0.00,Wunderground v.1.15,2013-01-24 20:15:00,
2013-01-24 15:20:00,24.3,6.0,30.56,East,97,2.0,13.0,45,0.00,,,0.00,Wunderground v.1.15,2013-01-24 20:20:00,
2013-01-24 15:30:00,24.1,7.2,30.55,NE,54,2.0,13.0,48,0.00,,,0.00,Wunderground v.1.15,2013-01-24 20:30:00,
2013-01-24 15:35:00,23.7,5.9,30.55,ESE,112,2.0,13.0,46,0.00,,,0.00,Wunderground v.1.15,2013-01-24 20:35:00,
2013-01-24 15:40:00,23.4,5.6,30.55,ESE,113,3.0,13.0,46,0.00,,,0.00,Wunderground v.1.15,2013-01-24 20:40:00,
2013-01-24 15:45:00,23.4,6.1,30.55,ESE,115,4.0,13.0,47,0.00,,,0.00,Wunderground v.1.15,2013-01-24 20:45:00,
2013-01-24 15:50:00,23.4,5.6,30.56,East,84,4.0,13.0,46,0.00,,,0.00,Wunderground v.1.15,2013-01-24 20:50:00,
2013-01-24 15:55:00,23.3,6.0,30.55,ESE,120,3.0,13.0,47,0.00,,,0.00,Wunderground v.1.15,2013-01-24 20:55:00,
2013-01-24 16:00:00,23.2,6.4,30.55,East,80,2.0,13.0,48,0.00,,,0.00,Wunderground v.1.15,2013-01-24 21:00:00,
2013-01-24 16:05:00,23.4,6.6,30.55,East,92,2.0,13.0,48,0.00,,,0.00,Wunderground v.1.15,2013-01-24 21:05:00,
2013-01-24 16:10:00,23.3,6.5,30.55,East,88,2.0,13.0,48,0.00,,,0.00,Wunderground v.1.15,2013-01-24 21:10:00,
2013-01-24 16:15:00,23.1,5.8,30.55,SE,141,2.0,13.0,47,0.00,,,0.00,Wunderground v.1.15,2013-01-24 21:15:00,
2013-01-24 16:20:00,23.0,5.7,30.55,SE,141,3.0,3.0,47,0.00,,,0.00,Wunderground v.1.15,2013-01-24 21:20:00,
2013-01-24 16:25:00,23.0,5.7,30.55,ESE,115,3.0,13.0,47,0.00,,,0.00,Wunderground v.1.15,2013-01-24 21:25:00,
2013-01-24 16:35:00,23.1,6.3,30.54,East,90,3.0,13.0,48,0.00,,,0.00,Wunderground v.1.15,2013-01-24 21:35:00,
2013-01-24 16:40:00,22.9,6.1,30.54,ESE,120,4.0,13.0,48,0.00,,,0.00,Wunderground v.1.15,2013-01-24 21:40:00,
2013-01-24 16:45:00,22.9,7.0,30.54,ESE,120,3.0,13.0,50,0.00,,,0.00,Wunderground v.1.15,2013-01-24 21:45:00,
2013-01-24 16:50:00,22.9,6.6,30.53,ESE,119,2.0,13.0,49,0.00,,,0.00,Wunderground v.1.15,2013-01-24 21:50:00,
2013-01-24 16:55:00,22.8,6.5,30.53,NNE,32,3.0,13.0,49,0.00,,,0.00,Wunderground v.1.15,2013-01-24 21:55:00,
2013-01-24 17:05:00,22.6,6.3,30.54,SE,132,3.0,13.0,49,0.00,,,0.00,Wunderground v.1.15,2013-01-24 22:05:00,
2013-01-24 17:10:00,22.6,6.3,30.54,SE,132,3.0,3.0,49,0.00,,,0.00,Wunderground v.1.15,2013-01-24 22:10:00,
2013-01-24 17:15:00,22.6,6.7,30.54,SE,132,1.0,13.0,50,0.00,,,0.00,Wunderground v.1.15,2013-01-24 22:15:00,
2013-01-24 17:20:00,22.6,7.2,30.53,SE,132,0.0,13.0,51,0.00,,,0.00,Wunderground v.1.15,2013-01-24 22:20:00,
2013-01-24 17:25:00,22.7,6.8,30.54,ESE,111,1.0,13.0,50,0.00,,,0.00,Wunderground v.1.15,2013-01-24 22:25:00,
2013-01-24 17:30:00,22.6,6.7,30.53,ESE,105,2.0,2.0,50,0.00,,,0.00,Wunderground v.1.15,2013-01-24 22:30:00,
2013-01-24 17:35:00,22.6,5.8,30.54,ESE,105,2.0,13.0,48,0.00,,,0.00,Wunderground v.1.15,2013-01-24 22:35:00,
2013-01-24 17:40:00,22.5,5.3,30.53,ESE,105,2.0,13.0,47,0.00,,,0.00,Wunderground v.1.15,2013-01-24 22:40:00,
2013-01-24 17:45:00,22.4,6.1,30.53,ESE,105,1.0,13.0,49,0.00,,,0.00,Wunderground v.1.15,2013-01-24 22:45:00,
2013-01-24 17:50:00,22.3,5.1,30.53,ESE,106,2.0,13.0,47,0.00,,,0.00,Wunderground v.1.15,2013-01-24 22:50:00,
2013-01-24 17:55:00,22.2,5.5,30.52,ESE,102,2.0,13.0,48,0.00,,,0.00,Wunderground v.1.15,2013-01-24 22:55:00,
2013-01-24 18:00:00,22.1,5.8,30.52,SE,126,2.0,13.0,49,0.00,,,0.00,Wunderground v.1.15,2013-01-24 23:00:00,
2013-01-24 18:05:00,22.1,5.8,30.52,SE,126,2.0,13.0,49,0.00,,,0.00,Wunderground v.1.15,2013-01-24 23:05:00,
2013-01-24 18:10:00,22.0,5.3,30.52,ESE,103,2.0,13.0,48,0.00,,,0.00,Wunderground v.1.15,2013-01-24 23:10:00,
2013-01-24 18:15:00,21.9,5.2,30.52,East,98,3.0,13.0,48,0.00,,,0.00,Wunderground v.1.15,2013-01-24 23:15:00,
2013-01-24 18:20:00,21.8,5.5,30.52,ESE,103,2.0,13.0,49,0.00,,,0.00,Wunderground v.1.15,2013-01-24 23:20:00,
2013-01-24 18:25:00,21.8,5.5,30.53,East,84,2.0,13.0,49,0.00,,,0.00,Wunderground v.1.15,2013-01-24 23:25:00,
2013-01-24 18:30:00,21.8,6.0,30.53,East,100,2.0,2.0,50,0.00,,,0.00,Wunderground v.1.15,2013-01-24 23:30:00,
2013-01-24 18:35:00,21.7,5.9,30.53,East,92,2.0,2.0,50,0.00,,,0.00,Wunderground v.1.15,2013-01-24 23:35:00,
2013-01-24 18:45:00,21.7,5.9,30.52,ENE,73,3.0,3.0,50,0.00,,,0.00,Wunderground v.1.15,2013-01-24 23:45:00,
2013-01-24 18:50:00,21.6,6.2,30.52,ENE,78,2.0,4.0,51,0.00,,,0.00,Wunderground v.1.15,2013-01-24 23:50:00,
2013-01-24 18:55:00,21.6,5.8,30.52,East,88,2.0,4.0,50,0.00,,,0.00,Wunderground v.1.15,2013-01-24 23:55:00,
2013-01-24 19:00:00,21.6,5.8,30.52,East,99,3.0,6.0,50,0.00,,,0.00,Wunderground v.1.15,2013-01-25 00:00:00,
2013-01-24 19:05:00,21.5,5.7,30.52,ENE,74,3.0,7.0,50,0.00,,,0.00,Wunderground v.1.15,2013-01-25 00:05:00,
2013-01-24 19:15:00,21.3,6.0,30.51,ENE,75,2.0,4.0,51,0.00,,,0.00,Wunderground v.1.15,2013-01-25 00:15:00,
2013-01-24 19:20:00,21.3,6.0,30.50,East,96,3.0,7.0,51,0.00,,,0.00,Wunderground v.1.15,2013-01-25 00:20:00,
2013-01-24 19:25:00,21.3,6.0,30.50,East,101,3.0,7.0,51,0.00,,,0.00,Wunderground v.1.15,2013-01-25 00:25:00,
2013-01-24 19:30:00,21.3,6.0,30.50,ENE,60,3.0,3.0,51,0.00,,,0.00,Wunderground v.1.15,2013-01-25 00:30:00,
2013-01-24 19:35:00,21.2,5.9,30.50,SE,125,3.0,7.0,51,0.00,,,0.00,Wunderground v.1.15,2013-01-25 00:35:00,
2013-01-24 19:40:00,21.2,6.7,30.50,SE,125,2.0,2.0,53,0.00,,,0.00,Wunderground v.1.15,2013-01-25 00:40:00,
2013-01-24 19:50:00,21.2,6.3,30.49,East,90,2.0,2.0,52,0.00,,,0.00,Wunderground v.1.15,2013-01-25 00:50:00,
2013-01-24 19:55:00,21.2,6.3,30.50,ESE,121,2.0,3.0,52,0.00,,,0.00,Wunderground v.1.15,2013-01-25 00:55:00,
2013-01-24 20:00:00,21.2,6.3,30.50,East,88,2.0,7.0,52,0.00,,,0.00,Wunderground v.1.15,2013-01-25 01:00:00,
2013-01-24 20:05:00,21.2,6.7,30.49,ESE,108,2.0,7.0,53,0.00,,,0.00,Wunderground v.1.15,2013-01-25 01:05:00,
2013-01-24 20:10:00,21.2,6.3,30.50,ESE,118,2.0,7.0,52,0.00,,,0.00,Wunderground v.1.15,2013-01-25 01:10:00,
2013-01-24 20:20:00,21.2,5.9,30.50,SE,130,3.0,7.0,51,0.00,,,0.00,Wunderground v.1.15,2013-01-25 01:20:00,
2013-01-24 20:25:00,21.2,5.9,30.49,East,101,3.0,7.0,51,0.00,,,0.00,Wunderground v.1.15,2013-01-25 01:25:00,
2013-01-24 20:30:00,21.2,6.3,30.49,East,93,3.0,7.0,52,0.00,,,0.00,Wunderground v.1.15,2013-01-25 01:30:00,
2013-01-24 20:35:00,21.2,5.9,30.49,ESE,120,3.0,7.0,51,0.00,,,0.00,Wunderground v.1.15,2013-01-25 01:35:00,
2013-01-24 20:40:00,21.2,5.9,30.48,ESE,121,2.0,7.0,51,0.00,,,0.00,Wunderground v.1.15,2013-01-25 01:40:00,
2013-01-24 20:45:00,21.2,5.9,30.48,SE,131,2.0,7.0,51,0.00,,,0.00,Wunderground v.1.15,2013-01-25 01:45:00,
2013-01-24 20:55:00,21.2,6.3,30.48,SE,131,3.0,7.0,52,0.00,,,0.00,Wunderground v.1.15,2013-01-25 01:55:00,
2013-01-24 21:00:00,21.2,6.3,30.48,East,82,2.0,2.0,52,0.00,,,0.00,Wunderground v.1.15,2013-01-25 02:00:00,
2013-01-24 21:05:00,21.2,7.1,30.49,East,82,1.0,7.0,54,0.00,,,0.00,Wunderground v.1.15,2013-01-25 02:05:00,
2013-01-24 21:10:00,21.2,6.7,30.48,East,92,2.0,7.0,53,0.00,,,0.00,Wunderground v.1.15,2013-01-25 02:10:00,
2013-01-24 21:15:00,21.2,7.1,30.48,ESE,119,3.0,7.0,54,0.00,,,0.00,Wunderground v.1.15,2013-01-25 02:15:00,
2013-01-24 21:25:00,21.2,7.1,30.46,SE,128,2.0,7.0,54,0.00,,,0.00,Wunderground v.1.15,2013-01-25 02:25:00,
2013-01-24 21:30:00,21.2,7.1,30.46,East,90,3.0,3.0,54,0.00,,,0.00,Wunderground v.1.15,2013-01-25 02:30:00,
2013-01-24 21:35:00,21.2,7.1,30.45,East,85,3.0,7.0,54,0.00,,,0.00,Wunderground v.1.15,2013-01-25 02:35:00,
2013-01-24 21:40:00,21.2,7.1,30.45,East,101,4.0,4.0,54,0.00,,,0.00,Wunderground v.1.15,2013-01-25 02:40:00,
2013-01-24 21:45:00,21.2,7.5,30.45,East,101,3.0,7.0,55,0.00,,,0.00,Wunderground v.1.15,2013-01-25 02:45:00,
2013-01-24 21:50:00,21.2,7.1,30.44,ESE,114,3.0,3.0,54,0.00,,,0.00,Wunderground v.1.15,2013-01-25 02:50:00,
2013-01-24 22:00:00,21.2,7.1,30.44,ESE,113,3.0,3.0,54,0.00,,,0.00,Wunderground v.1.15,2013-01-25 03:00:00,
2013-01-24 22:05:00,21.2,7.1,30.44,ESE,109,4.0,4.0,54,0.00,,,0.00,Wunderground v.1.15,2013-01-25 03:05:00,
2013-01-24 22:10:00,21.3,7.6,30.44,SE,125,4.0,4.0,55,0.00,,,0.00,Wunderground v.1.15,2013-01-25 03:10:00,
2013-01-24 22:15:00,21.3,8.0,30.44,ESE,114,3.0,7.0,56,0.00,,,0.00,Wunderground v.1.15,2013-01-25 03:15:00,
2013-01-24 22:20:00,21.3,8.0,30.43,East,88,3.0,7.0,56,0.00,,,0.00,Wunderground v.1.15,2013-01-25 03:20:00,
2013-01-24 22:30:00,21.2,7.9,30.44,ESE,117,2.0,7.0,56,0.00,,,0.00,Wunderground v.1.15,2013-01-25 03:30:00,
2013-01-24 22:35:00,21.2,7.9,30.44,ESE,117,2.0,7.0,56,0.00,,,0.00,Wunderground v.1.15,2013-01-25 03:35:00,
2013-01-24 22:40:00,21.2,7.9,30.44,ESE,121,2.0,2.0,56,0.00,,,0.00,Wunderground v.1.15,2013-01-25 03:40:00,
2013-01-24 22:45:00,21.1,7.8,30.43,ESE,119,2.0,7.0,56,0.00,,,0.00,Wunderground v.1.15,2013-01-25 03:45:00,
2013-01-24 22:50:00,21.1,7.8,30.44,ESE,123,2.0,2.0,56,0.00,,,0.00,Wunderground v.1.15,2013-01-25 03:50:00,
2013-01-24 22:55:00,21.1,8.2,30.44,ESE,123,2.0,7.0,57,0.00,,,0.00,Wunderground v.1.15,2013-01-25 03:55:00,
2013-01-24 23:00:00,21.2,8.3,30.43,ESE,121,2.0,7.0,57,0.00,,,0.00,Wunderground v.1.15,2013-01-25 04:00:00,
2013-01-24 23:05:00,21.2,8.3,30.43,ESE,121,2.0,7.0,57,0.00,,,0.00,Wunderground v.1.15,2013-01-25 04:05:00,
2013-01-24 23:10:00,21.2,8.3,30.43,SE,132,2.0,7.0,57,0.00,,,0.00,Wunderground v.1.15,2013-01-25 04:10:00,
2013-01-24 23:15:00,21.3,8.4,30.42,ESE,108,2.0,7.0,57,0.00,,,0.00,Wunderground v.1.15,2013-01-25 04:15:00,
2013-01-24 23:20:00,21.2,8.7,30.42,ESE,123,3.0,7.0,58,0.00,,,0.00,Wunderground v.1.15,2013-01-25 04:20:00,
2013-01-24 23:25:00,21.3,8.4,30.41,ESE,121,3.0,7.0,57,0.00,,,0.00,Wunderground v.1.15,2013-01-25 04:25:00,
2013-01-24 23:35:00,21.2,8.7,30.41,SE,135,2.0,7.0,58,0.00,,,0.00,Wunderground v.1.15,2013-01-25 04:35:00,
2013-01-24 23:40:00,21.2,8.7,30.41,ESE,111,2.0,7.0,58,0.00,,,0.00,Wunderground v.1.15,2013-01-25 04:40:00,
2013-01-24 23:45:00,21.3,8.8,30.41,East,90,3.0,7.0,58,0.00,,,0.00,Wunderground v.1.15,2013-01-25 04:45:00,
2013-01-24 23:50:00,21.3,9.2,30.40,ESE,110,2.0,7.0,59,0.00,,,0.00,Wunderground v.1.15,2013-01-25 04:50:00,
2013-01-24 23:55:00,21.3,9.2,30.40,ESE,112,3.0,7.0,59,0.00,,,0.00,Wunderground v.1.15,2013-01-25 04:55:00,